Regional Weather Roundup
Issued by NWS

Home | Current Version | Previous Version | Text Only | Print | Product List | Glossary On
Versions: 1 2 3 4 5 6 7 8 9 10 11 12 13 14 15 16 17 18 19 20 21 22 23 24 25 26 27 28 29 30 31 32 33 34 35 36 37 38 39 40 41 42 43 44 45 46 47 48 49 50
000
ASUS44 KLIX 271814
RWRLA
LOUISIANA WEATHER ROUNDUP
NATIONAL WEATHER SERVICE NEW ORLEANS LA
100 PM CDT THU JUL 27 2017

NOTE: "FAIR" INDICATES FEW OR NO CLOUDS BELOW 12,000 FEET WITH NO
      SIGNIFICANT WEATHER AND/OR OBSTRUCTIONS TO VISIBILITY.
      SKY/WX - SKY CONDITION AND SIGNIFICANT WEATHER.
      TMP - AIR TEMPERATURE.    DP   - DEWPOINT TEMPERATURE.
      RH  - RELATIVE HUMIDITY.  PRES - PRESSURE.
      HX  - HEAT INDEX.         WCI  - WIND CHILL INDEX.

*  THESE STATIONS ARE NOT NWS OR FAA STATIONS AND ARE NOT UNDER
   NWS QUALITY CONTROL.

LAZ040-048-061>063-065-066-069-271900-
SOUTHEAST LOUISIANA

CITY           SKY/WX    TMP DP  RH WIND       PRES   REMARKS
N.O. INTL ARPT MOSUNNY   92  69  47 NW7       30.06F HX  97
6HR MIN TEMP:  78; 6HR MAX TEMP:  92;

N.O. LAKEFRONT MOSUNNY   89  78  70 NW7       30.06F HX 103
6HR MIN TEMP:  83; 6HR MAX TEMP:  90;

N.O. DOWNTOWN*   N/A     92  69  47 VRB7        N/A  HX  97
6HR MIN TEMP:  82; 6HR MAX TEMP:  93;

RESERVE*       FAIR      94  74  53 N3        30.06F HX 104
6HR MIN TEMP:  78; 6HR MAX TEMP:  95;

SLIDELL        MOSUNNY   92  71  50 W3        30.05F HX  98
6HR MIN TEMP:  73; 6HR MAX TEMP:  93;

BATON ROUGE    MOSUNNY   92  72  51 VRB7      30.07F HX  99
6HR MIN TEMP:  75; 6HR MAX TEMP:  92;

BOOTHVILLE     SUNNY     91  75  59 VRB5      30.06F HX 101
6HR MIN TEMP:  82; 6HR MAX TEMP:  91;

BELLE CHASSE   MOSUNNY   90  76  62 CALM      30.05F HX 102
6HR MIN TEMP:  81; 6HR MAX TEMP:  90;

BOGALUSA*      MOCLDY    93  71  48 N3        30.07F HX  99
6HR MIN TEMP:  74; 6HR MAX TEMP:  93;

GALLIANO*      CLEAR     92  70  48 E6        30.06F HX  97
6HR MIN TEMP:  78; 6HR MAX TEMP:  92;

NEW ROADS*     FAIR      88  73  61 W3        30.07F HX  96
6HR MIN TEMP:  72; 6HR MAX TEMP:  88; 6HR PCP:  0.03;

GONZALES*      FAIR      91  72  53 CALM      30.05F HX  98
6HR MIN TEMP:  76; 6HR MAX TEMP:  91;

HAMMOND*       SUNNY     95  63  34 NE3       30.06F HX  96
HOUMA*         PTSUNNY   90  73  58 N5        30.06F HX  98
PORT FOURCHON* PTCLDY    91  73  55 VRB3G12   30.06F HX 100

$$

LAZ041-044-053-054-271900-
SOUTHWEST LOUISIANA

CITY           SKY/WX    TMP DP  RH WIND       PRES   REMARKS
LAKE CHARLES   MOSUNNY   91  72  53 VRB3      30.06F HX  98
6HR MIN TEMP:  76; 6HR MAX TEMP:  91;

LAFAYETTE      SUNNY     92  67  43 S3        30.07F HX  95
6HR MIN TEMP:  77; 6HR MAX TEMP:  93;

PATTERSON      SUNNY     91  77  63 N8        30.07F HX 104
6HR MIN TEMP:  78; 6HR MAX TEMP:  91;

SALT POINT       N/A     88  77  69 W6        30.06F HX 100
6HR MIN TEMP:  79; 6HR MAX TEMP:  88;

NEW IBERIA     SUNNY     92  66  42 CALM      30.08F
6HR MIN TEMP:  73; 6HR MAX TEMP:  92;

CHENAULT AIRPK PTSUNNY   90  73  58 VRB6      30.07F HX  98

$$

LAZ027-028-271900-
CENTRAL LOUISIANA

CITY           SKY/WX    TMP DP  RH WIND       PRES   REMARKS
FORT POLK      SUNNY     89  73  59 S6        30.05F HX  97
6HR MIN TEMP:  76; 6HR MAX TEMP:  89;

ALEXANDRIA INT SUNNY     91  72  53 CALM      30.04F HX  98
6HR MIN TEMP:  73; 6HR MAX TEMP:  91;

ALEXANDRIA     SUNNY     92  73  53 W7        30.06F HX 100
6HR MIN TEMP:  70; 6HR MAX TEMP:  93;


$$

LAZ001-002-271900-
NORTHWEST LOUISIANA

CITY           SKY/WX    TMP DP  RH WIND       PRES   REMARKS
SHREVEPORT     CLOUDY    94  72  48 VRB5      30.02F HX 102
6HR MIN TEMP:  77; 6HR MAX TEMP:  95;

BARKSDALE AFB  MOSUNNY   95  72  46 S8        30.02F HX 102
6HR MIN TEMP:  78; 6HR MAX TEMP:  95;

DTN SHREVEPORT SUNNY     95  72  47 SW9       30.03F HX 103
6HR MIN TEMP:  79; 6HR MAX TEMP:  95;


$$

LAZ014-016-271900-
NORTHEAST LOUISIANA

CITY           SKY/WX    TMP DP  RH WIND       PRES   REMARKS
MONROE         PTSUNNY   93  75  55 VRB5      30.04F HX 104
6HR MIN TEMP:  76; 6HR MAX TEMP:  93;

TALLULAH       MOSUNNY   90  73  57 VRB3      30.05F HX  98
6HR MIN TEMP:  75; 6HR MAX TEMP:  91;


$$




USA.gov is the U.S. government's official web portal to all federal, state and local government web resources and services.